Terminal Aerodrome Forecast
Issued by NWS

Home | Current Version | Previous Version | Text Only | Print | Product List | Glossary On
Versions: 1 2 3 4 5 6 7 8 9 10 11 12 13 14 15 16 17 18 19 20 21 22 23 24 25 26 27 28 29 30 31
477
FTUS41 KOKX 260630 AAA
TAFTEB
TAF AMD
KTEB 260630Z 2607/2706 06010G18KT P6SM -DZ SCT015 OVC035
     FM261000 05010KT P6SM SCT025 OVC035
     FM261300 06007KT 6SM -RA OVC025
     FM262000 07008KT 5SM -RA BR SCT008 OVC015
     FM270200 07009KT 3SM -DZ BR SCT004 OVC008=

USA.gov is the U.S. government's official web portal to all federal, state and local government web resources and services.